リニア彗星

197P/LINEAR (2003)

English version
Home page
Updated on March 12, 2008

---------------------------------------------------------------------

・ プロフィール

符号 197P/2003 KV2
発見日 2003年5月23日
発見光度 18.4等
発見者 Lincoln Laboratory Near-Earth Asteroid Research project

・ 写真集

・ 軌道要素

T 2003 July 10.8481 TT                                  MPC
q   1.063011             (2000.0)            P               Q
n   0.2030178      Peri.  188.7415      -0.2698716      +0.8781050
a   2.867125       Node    66.4101      -0.8553299      -0.0301599
e   0.629242       Incl.   25.5389      -0.4422444      -0.4775164
P   4.85
>From 157 observations 2003 May 23-Aug. 2.

・ 星図

・ 光度変化

        m1 = 17.5 + 5 logΔ + 10.0 log r

---------------------------------------------------------------------

軌道要素はM.P.E.C. 2003-P20に掲載されたものです。
星図は StellaNavigator Ver.2.0 for Windows (アストロアーツ 編著 / アスキー出版局刊) で作成したものです。
光度グラフはComet for Windowsで作成したものです。

---------------------------------------------------------------------

Copyright(C) Seiichi Yoshida (comet@aerith.net). All rights reserved.